Location: Brasiles
(12.1865°N, 86.3624°W)
Time: 05:42:39
(UTC+00:00)

Daily predictions for brighter satellites

Satellite Brightness Start Highest point End
(mag) Time Altitude Azimuth Time Altitude Azimuth Time Altitude Azimuth
Cosmos 1607 4.1 00:20:09 10° NNW 00:26:36 83° ENE 00:33:01 10° SSE
Cosmos 2278 Rocket 3.5 00:24:16 10° SW 00:29:40 47° WNW 00:35:05 10° N
STARLINK-1178 3.6 00:29:11 10° NW 00:33:18 87° WSW 00:37:26 10° SE
KM-V1 3.2 00:32:41 10° NW 00:34:38 52° NNE 00:37:01 10° ESE
Meteor 1-18 Rocket 4.2 00:29:19 10° S 00:34:50 72° E 00:40:25 10° N
CZ-4 R/B 1.5 00:31:26 10° SSE 00:35:38 81° E 00:39:51 10° N
Aureole 2 Rocket 3.3 00:34:50 10° SSE 00:37:31 24° ESE 00:40:08 10° NE
STARLINK-1120 3.8 00:34:09 10° NW 00:38:16 75° SW 00:42:23 10° SSE
Cosmos 1536 3.1 00:35:31 10° N 00:39:33 75° W 00:43:35 10° S
Cosmos 44 Rocket 3.7 00:37:18 10° NNW 00:42:17 69° WSW 00:47:20 10° SSE
CSL-04 Rocket 3.9 00:37:50 10° SSE 00:43:06 51° ENE 00:48:27 10° N
STARLINK-1131 4.0 00:39:09 10° NW 00:43:14 64° SW 00:47:19 10° SSE
ASC 2 Rocket 3.4 00:41:00 10° WSW 00:45:04 68° NNW 00:50:10 10° ENE
BREEZE-M DEB (TANK) 1.6 00:43:03 10° NW 00:45:10 79° NE 00:49:29 10° SE
STARLINK-52 3.4 00:42:10 10° SW 00:45:20 64° NW 00:48:29 10° NNE
Okean 1-7 3.1 00:42:04 10° S 00:46:20 82° W 00:50:35 10° N
STARLINK-1190 4.2 00:44:09 10° NW 00:48:11 55° SW 00:52:13 10° SSE
Cosmos 371 Rocket 3.6 00:46:59 10° SSW 00:51:47 73° WNW 00:56:37 10° N
STARLINK-1129 4.5 00:49:11 10° NW 00:53:08 47° SW 00:57:07 10° SSE
CZ-2C R/B 4.0 00:49:06 10° SE 00:53:42 31° ENE 00:58:34 10° NNE
Cosmos 1908 Rocket 3.8 00:51:17 10° N 00:55:38 51° E 00:59:57 10° SSE
FALCON 9 DEB 3.0 00:56:52 10° SW 01:00:17 90° NW 01:03:41 10° NE
Tsikada Rocket 4.2 00:57:19 10° S 01:03:31 75° W 01:09:40 10° N
SL-24 R/B 4.3 01:01:33 10° SSE 01:06:01 89° WSW 01:10:58 10° NNW
STARLINK-1329 4.4 01:03:58 10° S 01:07:20 27° ESE 01:09:09 19° E
ARGOS 4.0 01:04:44 18° SE 01:07:45 31° ENE 01:12:25 10° NNE
Cosmos 1437 Rocket 3.8 01:09:10 24° E 01:09:26 24° E 01:12:31 10° NE
GPS 2-14 Rocket1 3.7 01:06:16 10° W 01:10:17 46° NNW 01:14:14 10° ENE
STARLINK-1362 4.2 01:08:08 10° S 01:11:39 30° ESE 01:13:25 21° E
ASTEX 1 3.8 01:08:19 17° SSE 01:11:47 43° E 01:16:24 10° NNE
ARIANE 3 DEB 4.2 01:03:26 10° WSW 01:12:45 49° S 01:15:15 25° ESE
Cosmos 304 Rocket 3.6 01:08:03 10° S 01:12:49 76° ESE 01:17:34 10° NNE
MOS 1 Rocket 3.1 01:09:31 10° NNE 01:13:44 58° E 01:18:06 10° S
YAOGAN 1 4.0 01:10:20 10° SSW 01:14:20 37° W 01:18:20 10° NNW
Cosmos 1943 Rocket 2.7 01:09:41 10° SSE 01:14:33 33° ESE 01:19:28 10° NE
SWIFT 4.2 01:12:04 10° WNW 01:15:40 26° N 01:19:16 10° NE
STARLINK-1373 4.1 01:12:23 10° S 01:16:01 34° ESE 01:17:31 25° E
Ariane H10 4.0 01:16:55 10° SSW 01:19:24 18° SSE 01:19:24 18° SSE
STARLINK-1390 3.9 01:16:38 10° SSW 01:20:22 39° ESE 01:21:44 29° E
Okean 3 3.4 01:16:06 10° S 01:20:23 85° E 01:24:41 10° N
STARLINK-1074 4.4 01:16:38 10° NNW 01:20:27 36° NE 01:21:33 30° E
Sich 1 Rocket 4.4 01:17:25 10° NNE 01:21:25 31° E 01:21:59 30° E
HJ-1C 3.8 01:19:17 16° S 01:21:44 60° W 01:24:59 10° NNW
H-2A R/B 2.0 01:19:06 21° SSE 01:22:21 61° ENE 01:27:23 10° N
Cosmos 909 Rocket 4.3 01:17:16 10° N 01:23:34 50° ENE 01:26:36 28° SE
CZ-2C R/B 2.7 01:18:50 10° NNE 01:24:19 61° E 01:29:44 10° S
STARLINK-1365 3.7 01:20:32 10° SSW 01:24:23 46° SE 01:26:35 22° ENE
Cosmos 1743 3.2 01:20:53 10° NNW 01:24:36 59° W 01:27:54 13° S
STARLINK-1088 3.9 01:26:24 10° NNW 01:30:24 48° NE 01:31:07 42° E
Hubble Space Telescope 0.6 01:30:14 10° WNW 01:34:23 87° SSW 01:35:11 57° ESE
FREGAT/IRIS 4.4 01:36:03 21° NNE 01:36:03 21° NNE 01:37:07 10° N
Cosmos 1674 Rocket 4.2 01:35:30 36° ENE 01:35:30 36° ENE 01:38:56 10° NNE
STARLINK-1115 3.7 01:31:18 10° NNW 01:35:21 56° NE 01:35:52 51° E
Iridium 51 4.4 01:32:54 17° S 01:35:53 72° W 01:39:37 10° N
Palapa 6 Rocket 3.8 01:35:24 10° SW 01:38:23 33° S 01:38:23 33° S
STARLINK-1338 3.3 01:36:14 10° SSW 01:40:08 76° SE 01:40:45 59° ENE
STARLINK-1076 3.5 01:36:13 10° NNW 01:40:18 65° NE 01:40:39 62° E
SL-4 R/B 3.8 01:39:31 10° N 01:39:39 11° N 01:39:39 11° N
NOSS 3-4 (A) 3.5 01:36:59 10° S 01:42:37 43° ESE 01:48:09 10° NE
NOSS 3-4 (C) 3.6 01:37:06 10° S 01:42:43 43° ESE 01:48:14 10° NE
Cosmos 1833 Rocket 3.0 01:37:35 10° N 01:42:55 45° ENE 01:43:44 42° E
STARLINK-1092 3.4 01:41:10 10° NNW 01:45:17 76° NE 01:45:27 74° E
Cosmos 2369 Rocket 2.3 01:46:21 48° ESE 01:46:48 49° ESE 01:52:14 10° NNE
STARLINK-1371 3.4 01:44:20 10° SW 01:48:15 84° NW 01:48:39 71° NNE
STARLINK-1080 3.5 01:46:08 10° NW 01:50:14 88° NNE 01:50:14 88° NNE
USA 186 3.9 01:52:44 19° NNW 01:52:44 19° NNW 01:53:38 10° NNW
STARLINK-1341 3.6 01:48:27 10° SW 01:52:22 74° NW 01:52:35 70° NNW
Centaur AC-119 3.7 01:44:24 10° WNW 01:53:27 37° SW 01:54:14 34° SSW
COSMOS 2406 3.3 01:48:17 10° NNW 01:53:59 75° WSW 01:56:06 40° S
Delta 128 4.5 01:47:28 10° WNW 01:54:39 74° NNE 01:56:21 50° E
Cosmos 1140 Rocket 4.0 01:49:39 10° NNW 01:54:45 55° WSW 01:57:07 30° SSW
STARLINK-1090 3.6 01:51:06 10° NW 01:55:02 76° W 01:55:02 76° W
STARLINK-1374 3.8 01:52:33 10° SW 01:56:28 65° NW 01:56:29 65° NW
MOS 1 4.2 01:55:51 49° SSE 01:57:29 85° ENE 02:03:11 10° N
Cosmos 2279 Rocket 4.4 01:52:10 10° NNE 01:57:37 42° ENE 01:57:37 42° ENE
Cosmos 2082 Rocket 3.0 01:53:54 10° N 01:58:17 34° NE 01:58:17 34° NE
SJ-6B 3.5 02:00:18 47° NNW 02:00:18 47° NNW 02:03:01 10° NNW
Cosmos 1975 3.8 01:55:42 10° NNW 01:59:29 42° W 02:00:18 37° SW
USA 267 3.3 01:58:06 48° ESE 01:59:45 61° NE 02:06:11 10° NNW
STARLINK-1089 3.9 01:56:06 10° NW 01:59:49 63° W 01:59:49 63° W
STARLINK-1339 4.0 01:56:44 10° SW 02:00:32 56° WNW 02:00:32 56° WNW
GPS 2-12 Rocket1 3.7 01:56:24 10° WNW 02:00:41 44° NNE 02:00:46 44° NNE
STARLINK-1377 4.3 02:00:56 10° SW 02:04:35 49° WNW 02:04:35 49° WNW
H-2A ROCKET BODY 3.4 02:01:41 10° WNW 02:04:54 37° N 02:14:57 10° ENE
STARLINK-1107 4.3 02:01:06 10° NW 02:04:36 52° W 02:04:36 52° W
SL-08 RB Rocket 3.8 02:07:19 69° WSW 02:07:23 70° WSW 02:11:55 10° NNW
ATLAS 2AS CENTAUR R/B 2.8 02:01:49 10° SSW 02:09:23 84° ESE 02:17:22 10° NNE
Meteor 1-23 Rocket 4.1 02:10:20 62° SSW 02:11:21 86° W 02:17:02 10° N
Cosmos 1066 Rocket 4.0 02:13:29 80° SW 02:13:42 83° W 02:19:04 10° N
Cosmos 1932 4.5 02:08:28 10° NNW 02:14:51 76° WSW 02:15:48 64° S
Lacrosse 5 3.0 02:10:32 10° NNW 02:13:58 34° NNE 02:13:58 34° NNE
MetOp-A 4.1 02:16:08 73° NNE 02:16:08 73° NNE 02:21:00 10° N
Delta 198 4.4 02:14:58 10° WNW 02:19:06 50° W 02:19:06 50° W
Milstar 3 Cent rocket 4.3 02:24:23 10° W 02:30:37 41° N 02:42:41 10° ENE
H-2A R/B 2.6 02:28:13 10° NW 02:31:36 71° N 02:31:36 71° N
Resurs 01 Rocket 4.2 02:54:43 17° NNW 02:54:43 17° NNW 02:55:48 10° NNW
Centaur D-1A AC-32 4.0 02:54:41 10° WNW 03:00:30 38° NW 03:00:30 38° NW
Cosmos 2219 Rocket 4.4 08:02:25 20° ENE 08:02:25 20° ENE 08:04:22 10° NE
IDEFIX/ARIANE 42P 4.1 08:29:39 10° NNE 08:32:34 32° NE 08:32:34 32° NE
CZ-3A R/B 2.6 08:54:52 55° NE 08:54:52 55° NE 09:03:39 10° ENE
Cosmos 2237 Rocket 3.6 08:54:00 29° SE 08:55:04 31° ESE 08:59:58 10° NE
H-2A R/B (2) 3.8 08:53:08 47° SSW 08:55:07 52° SSE 09:00:12 10° E
ATLAS 2A CENTAUR R/B 3.9 08:58:49 64° S 08:59:04 64° SSE 09:03:14 10° ENE
USA 234 3.5 08:54:39 10° NE 09:01:01 56° SE 09:01:56 52° SSE
Atlas Centaur 2 4.0 09:02:32 19° SE 09:02:32 19° SE 09:05:33 10° ESE
COSMOS 2428 3.3 09:06:24 45° NNW 09:06:24 45° NNW 09:10:33 10° N
MSX 3.7 09:01:18 10° NNE 09:06:56 85° ENE 09:06:56 85° ENE
Cosmos 1821 Rocket 4.5 09:06:11 38° SSE 09:08:31 59° E 09:14:42 10° NNE
Cosmos 1818 4.4 09:10:05 40° NNW 09:10:05 40° NNW 09:13:55 10° N
EPKM 4.0 09:03:05 10° WNW 09:13:40 52° N 09:16:27 10° E
NOSS 0 Rocket 3.8 09:16:10 65° S 09:17:07 83° ESE 09:23:15 10° NNE
Cosmos 1844 Rocket 4.4 09:14:33 10° N 09:19:27 31° ENE 09:24:19 10° SE
NOSS 3-3 (A) 3.6 09:21:45 69° WNW 09:21:51 69° WNW 09:27:37 10° NNE
NOSS 3-3 (C) 3.6 09:21:49 70° WNW 09:21:57 71° WNW 09:27:44 10° NNE
USA 229 DEB 3.8 09:14:53 10° NNW 09:22:31 82° WSW 09:30:15 10° SSE
USA 229 3.8 09:14:59 10° NNW 09:22:37 83° WSW 09:30:22 10° SSE
NOSS 3-1 (C) 4.2 09:15:49 10° NNW 09:24:24 73° WSW 09:33:20 10° SSE
STARLINK-1064 4.2 09:25:26 55° E 09:25:26 55° E 09:29:01 10° NE
H-2A R/B 2.1 09:26:23 72° N 09:26:23 72° N 09:30:22 10° N
STARLINK-1041 3.8 09:30:14 66° E 09:30:14 66° E 09:34:02 10° NE
GPS 2-17 Rocket1 4.3 09:29:25 29° NNW 09:30:03 30° N 09:33:52 10° NE
NOSS 3-1 (A) 4.3 09:23:37 10° NNW 09:32:13 81° ENE 09:41:14 10° SSE
Cosmos 1727 Rocket 4.0 09:26:09 10° N 09:32:18 78° E 09:38:27 10° S
PAYLOAD A 3.8 09:27:36 10° NNE 09:32:27 88° E 09:33:33 56° S
Delta 7925 Rocket 4.0 09:32:06 53° SW 09:33:43 78° SSE 09:41:29 10° ENE
STARLINK-1038 3.6 09:35:00 80° E 09:35:00 80° E 09:39:00 10° NE
Cosmos 2333 Rocket 3.8 09:37:21 20° NW 09:37:21 20° NW 09:40:23 10° NNW
Cosmos 1606 3.3 09:35:12 10° N 09:37:58 46° NNW 09:37:58 46° NNW
STARLINK-1046 3.4 09:39:46 85° W 09:39:50 86° WNW 09:43:58 10° NE
Cosmos 1151 Rocket 2.9 09:37:03 10° N 09:41:25 80° W 09:42:12 58° SSW
deb Chang Zheng 4 3.9 09:37:47 10° N 09:41:22 45° NW 09:41:22 45° NW
ARIANE 5 R/B 3.3 09:39:50 37° SW 09:42:05 48° SSE 10:22:16 10° E
ARIANE 5 R/B 3.3 09:39:49 36° SW 09:42:06 48° SSE 10:22:16 10° E
Cosmos 2219 Rocket 3.8 09:44:09 18° WNW 09:44:09 18° WNW 09:47:07 10° NNW
STARLINK-1039 3.4 09:44:34 71° W 09:44:49 74° NW 09:48:56 10° NNE
Cosmos 2112 Rocket 4.2 09:45:36 46° WSW 09:46:18 49° WNW 09:51:22 10° N
STARLINK-1045 3.6 09:49:22 59° W 09:49:48 63° NW 09:53:53 10° NNE
Cosmos 1515 Rocket 3.9 09:45:50 10° N 09:50:06 64° E 09:54:23 10° SSE
Cosmos 2344 4.5 09:50:01 26° W 09:52:18 30° WNW 09:58:43 10° N
Cosmos 1633 3.9 09:54:09 25° NW 09:54:09 25° NW 09:56:10 10° NNW
STARLINK-1050 3.8 09:54:09 48° W 09:54:45 54° NW 09:58:48 10° NNE
ATLAS 5 CENTAUR R/B 3.5 09:57:35 13° NW 09:57:35 13° NW 09:58:55 10° NNW
USA 32 4.2 09:56:11 34° SW 09:58:02 49° W 10:03:04 10° NNW
Cosmos 1484 Rocket 4.1 09:54:26 10° NNE 09:58:11 39° E 10:01:55 10° S
Cosmos 1743 Rocket 4.3 09:59:26 33° W 09:59:26 33° W 10:03:21 10° NNW
STARLINK-1055 4.0 09:58:56 40° W 09:59:45 46° NW 10:03:43 10° NNE
Meteor 1-26 Rocket 4.4 09:53:50 10° N 09:59:48 84° E 10:05:49 10° S
Aurora 2 Rocket 2.2 09:59:37 44° WNW 10:00:09 50° NNW 10:03:10 10° NE
CZ-4B R/B 2.1 10:00:20 10° SSE 10:03:16 48° ENE 10:06:13 10° N
STARLINK-1022 4.2 10:03:43 34° W 10:04:42 40° NW 10:08:36 10° NNE
STARLINK-1175 2.3 10:05:14 73° SE 10:05:17 73° ESE 10:07:47 10° NE
Cosmos 1346 Rocket 3.5 10:05:13 33° W 10:05:30 34° W 10:09:07 10° NNW
CZ-2C R/B 2.9 10:03:13 10° N 10:08:03 42° WNW 10:10:27 25° SW
STARLINK-1042 4.5 10:08:30 29° W 10:09:41 35° NW 10:13:28 10° NNE
CCE 1 Rocket 4.4 10:07:50 23° W 10:10:05 38° NNW 10:13:41 10° NE
Ariane H10+ 4.2 10:08:52 25° SW 10:12:08 43° S 10:20:36 10° ESE
Cosmos 1980 4.4 10:10:42 25° WSW 10:12:58 33° WNW 10:18:00 10° N
CZ-4B R/B 3.5 10:10:47 10° NNE 10:14:14 47° E 10:17:44 10° S
OAO 3 Rocket 3.1 10:15:26 25° SW 10:18:12 89° NNW 10:22:52 10° NE
Cosmos 1844 3.6 10:15:08 10° NNW 10:20:53 74° WSW 10:26:34 10° S
ALOS 2.4 10:20:22 10° NNE 10:25:00 78° E 10:29:40 10° S
METEOR-M 4.4 10:21:30 10° NNE 10:26:49 72° ESE 10:32:07 10° S
Cosmos 1633 Rocket 3.6 10:22:54 10° S 10:27:11 60° E 10:31:26 10° NNE
ADEOS 4.5 10:23:08 10° NNW 10:27:35 29° WNW 10:31:00 15° SW
Meteor PRIRODA 4.1 10:25:33 10° NNE 10:29:07 60° E 10:32:41 10° S
Spot 2 3.9 10:25:11 10° N 10:29:17 78° WNW 10:33:35 10° SSW
Cosmos 1666 Rocket 3.5 10:28:05 10° S 10:32:31 85° W 10:36:58 10° N
CZ-4B R/B 4.4 10:30:42 10° N 10:34:59 47° WNW 10:39:17 10° SSW
OAO 1 Rocket 4.5 10:31:08 15° SW 10:35:35 87° SE 10:40:56 10° NE
STARLINK-1195 4.4 10:32:36 10° SSW 10:36:15 43° SE 10:39:54 10° NE
Fermi 3.7 10:34:02 10° WNW 10:38:09 89° NNE 10:42:14 10° ESE
Cosmos 2237 Rocket 3.6 10:35:53 13° WSW 10:38:55 19° WNW 10:42:53 10° NNW
STARLINK-1152 4.2 10:36:31 10° SSW 10:40:14 49° SE 10:43:57 10° NE
Skynet4D Del rocket 3.6 10:36:03 10° WNW 10:41:59 69° SSW 10:47:24 10° SE
STARLINK-1176 3.9 10:41:51 10° SSW 10:45:50 63° ESE 10:49:47 10° NE
Cosmos 2228 Rocket 3.5 10:42:23 10° NNW 10:46:41 43° W 10:51:02 10° SSW
Palapa 6 Rocket 4.5 10:38:49 10° WNW 10:46:45 83° SSW 10:54:43 10° ESE
PEGASUS R/B 4.0 10:46:43 10° N 10:48:51 35° WNW 10:51:29 10° SW
Atlas Centaur 2 1.9 10:45:08 10° WSW 10:50:54 84° SSE 10:55:23 10° ENE
FENGYUN 3A 3.9 10:46:47 10° N 10:52:01 51° WNW 10:57:15 10° SSW
Cosmos 1048 Rocket 4.2 10:47:55 10° S 10:53:15 84° ESE 10:58:38 10° NNE
STARLINK-1179 3.6 10:51:30 10° SSW 10:55:30 86° SE 10:59:31 10° NE
Meteor 1-10 Rocket 4.3 10:50:16 10° N 10:55:58 89° W 11:01:34 10° S
Okean O Rocket 3.7 10:54:35 10° NE 10:58:20 28° E 11:02:04 10° SSE
GPS 2-15 Rocket1 3.9 10:54:42 10° SW 10:59:12 42° SSE 11:03:47 10° E
SL-16 R/B 2.7 10:55:23 10° SW 11:00:41 42° WNW 11:06:01 10° N
Meteor 2-20 4.5 10:55:31 10° NNW 11:01:30 63° W 11:07:32 10° S
Cosmos 2123 Rocket 4.2 10:55:57 10° NNW 11:01:59 54° W 11:07:59 10° SSW
